• en France
  • Liste des pays
  • À 7 jours
  • Température de l'eau
  • Carte satellitaire
  • Carte météo
  • Widgets météo
  • user-avatar
    Se connecter

    Météo par heure à Gomel

    Ce jour, 20 Septembre, Jeudi

    Heure Température Précipitation Vent Pression Humidité
    00:00 +17°C° 0 mm 2 m/s 753 mmHg 84%
    01:00 +17°C° 0 mm 2 m/s 753 mmHg 86%
    02:00 +16°C° 0 mm 2 m/s 753 mmHg 88%
    03:00 +16°C° 0 mm 2 m/s 753 mmHg 88%
    04:00 +16°C° 0 mm 2 m/s 753 mmHg 89%
    05:00 +15°C° 0 mm 2 m/s 753 mmHg 90%
    06:00 +16°C° 0 mm 2 m/s 753 mmHg 86%
    07:00 +18°C° 0 mm 2 m/s 753 mmHg 81%
    08:00 +19°C° 0 mm 2 m/s 754 mmHg 77%
    09:00 +20°C° 0 mm 2 m/s 754 mmHg 71%
    10:00 +22°C° 0 mm 3 m/s 754 mmHg 65%
    11:00 +25°C° 0 mm 3 m/s 754 mmHg 59%
    12:00 +26°C° 0 mm 3 m/s 754 mmHg 57%
    13:00 +27°C° 0 mm 3 m/s 754 mmHg 55%
    14:00 +27°C° 0 mm 3 m/s 753 mmHg 53%
    15:00 +27°C° 0 mm 2 m/s 753 mmHg 56%
    16:00 +26°C° 0 mm 2 m/s 753 mmHg 60%
    17:00 +25°C° 0 mm 1 m/s 753 mmHg 64%
    18:00 +24°C° 0 mm 1 m/s 753 mmHg 68%
    19:00 +22°C° 0 mm 1 m/s 753 mmHg 72%
    20:00 +21°C° 0 mm 1 m/s 753 mmHg 76%
    21:00 +20°C° 0 mm 1 m/s 754 mmHg 77%
    22:00 +20°C° 0 mm 1 m/s 754 mmHg 79%
    23:00 +19°C° 0 mm 1 m/s 754 mmHg 80%

    Demain, 21 Septembre, Vendredi

    Heure Température Précipitation Vent Pression Humidité
    00:00 +19°C° 0 mm 1 m/s 754 mmHg 81%
    01:00 +19°C° 0 mm 1 m/s 754 mmHg 83%
    02:00 +18°C° 0 mm 1 m/s 754 mmHg 84%
    03:00 +18°C° 0 mm 1 m/s 754 mmHg 85%
    04:00 +18°C° 0 mm 1 m/s 754 mmHg 86%
    05:00 +16°C° 0 mm 1 m/s 754 mmHg 87%
    06:00 +17°C° 0 mm 0 m/s 754 mmHg 82%
    07:00 +18°C° 0 mm 0 m/s 754 mmHg 77%
    08:00 +19°C° 0 mm 0 m/s 755 mmHg 73%
    09:00 +23°C° 0 mm 1 m/s 755 mmHg 67%
    10:00 +25°C° 0 mm 1 m/s 755 mmHg 62%
    11:00 +26°C° 0 mm 2 m/s 755 mmHg 56%
    12:00 +27°C° 0 mm 2 m/s 754 mmHg 54%
    13:00 +27°C° 0 mm 2 m/s 754 mmHg 51%
    14:00 +28°C° 0 mm 2 m/s 753 mmHg 49%
    15:00 +27°C° 0 mm 2 m/s 753 mmHg 53%
    16:00 +26°C° 0 mm 2 m/s 753 mmHg 56%
    17:00 +25°C° 0 mm 2 m/s 753 mmHg 60%
    18:00 +24°C° 0 mm 2 m/s 753 mmHg 63%
    19:00 +21°C° 0 mm 2 m/s 753 mmHg 67%
    20:00 +20°C° 0 mm 2 m/s 753 mmHg 70%
    21:00 +19°C° 0 mm 2 m/s 752 mmHg 71%
    22:00 +19°C° 0 mm 3 m/s 752 mmHg 73%
    23:00 +18°C° 0 mm 3 m/s 752 mmHg 74%

    Après-demain, 22 Septembre, Samedi

    Heure Température Précipitation Vent Pression Humidité
    00:00 +18°C° 0 mm 3 m/s 752 mmHg 75%
    01:00 +17°C° 0 mm 3 m/s 752 mmHg 76%
    02:00 +17°C° 0 mm 3 m/s 752 mmHg 76%
    03:00 +17°C° 0 mm 3 m/s 752 mmHg 76%
    04:00 +17°C° 0 mm 3 m/s 751 mmHg 75%
    05:00 +17°C° 0 mm 4 m/s 751 mmHg 75%
    06:00 +17°C° 0 mm 4 m/s 751 mmHg 72%
    07:00 +18°C° 0 mm 4 m/s 751 mmHg 69%
    08:00 +19°C° 0 mm 5 m/s 750 mmHg 65%
    09:00 +21°C° 0 mm 5 m/s 750 mmHg 59%
    10:00 +23°C° 0 mm 5 m/s 750 mmHg 53%
    11:00 +26°C° 0 mm 6 m/s 750 mmHg 46%
    12:00 +26°C° 0 mm 6 m/s 749 mmHg 45%
    13:00 +27°C° 0 mm 5 m/s 749 mmHg 44%
    14:00 +27°C° 0 mm 5 m/s 749 mmHg 43%
    15:00 +25°C° 0 mm 5 m/s 749 mmHg 51%
    16:00 +22°C° 0 mm 5 m/s 749 mmHg 60%
    17:00 +20°C° 0 mm 5 m/s 749 mmHg 69%
    18:00 +17°C° 0.1 mm 5 m/s 749 mmHg 71%
    19:00 +15°C° 0.1 mm 5 m/s 750 mmHg 73%
    20:00 +14°C° 0.1 mm 5 m/s 750 mmHg 75%
    21:00 +13°C° 0.4 mm 4 m/s 750 mmHg 78%
    22:00 +12°C° 0.4 mm 4 m/s 750 mmHg 82%
    23:00 +11°C° 0.4 mm 4 m/s 750 mmHg 86%

    23 Septembre, Dimanche

    Heure Température Précipitation Vent Pression Humidité
    00:00 +10°C° 1.5 mm 4 m/s 750 mmHg 88%
    01:00 +10°C° 1.5 mm 3 m/s 750 mmHg 90%
    02:00 +9°C° 1.5 mm 3 m/s 750 mmHg 92%
    03:00 +9°C° 1.1 mm 3 m/s 750 mmHg 92%
    04:00 +9°C° 1.1 mm 3 m/s 750 mmHg 92%
    05:00 +9°C° 1.1 mm 3 m/s 750 mmHg 92%
    06:00 +8°C° 0.1 mm 4 m/s 750 mmHg 90%
    07:00 +10°C° 0.1 mm 4 m/s 750 mmHg 89%
    08:00 +10°C° 0.1 mm 4 m/s 750 mmHg 87%
    09:00 +10°C° 0.1 mm 5 m/s 750 mmHg 80%
    10:00 +13°C° 0.1 mm 5 m/s 750 mmHg 74%
    11:00 +14°C° 0.1 mm 5 m/s 749 mmHg 67%
    12:00 +15°C° 0.3 mm 6 m/s 749 mmHg 63%
    13:00 +15°C° 0.3 mm 6 m/s 749 mmHg 59%
    14:00 +16°C° 0.3 mm 6 m/s 749 mmHg 55%
    15:00 +15°C° 0.1 mm 5 m/s 749 mmHg 57%
    16:00 +14°C° 0.1 mm 5 m/s 749 mmHg 59%
    17:00 +14°C° 0.1 mm 4 m/s 749 mmHg 60%
    18:00 +13°C° 0 mm 3 m/s 750 mmHg 63%
    19:00 +11°C° 0 mm 3 m/s 750 mmHg 66%
    20:00 +10°C° 0 mm 3 m/s 750 mmHg 68%
    21:00 +10°C° 0 mm 3 m/s 750 mmHg 70%
    22:00 +9°C° 0 mm 3 m/s 750 mmHg 72%
    23:00 +9°C° 0 mm 3 m/s 750 mmHg 74%

    24 Septembre, Lundi

    Heure Température Précipitation Vent Pression Humidité
    00:00 +8°C° 0 mm 2 m/s 750 mmHg 74%
    01:00 +8°C° 0 mm 2 m/s 749 mmHg 75%
    02:00 +8°C° 0 mm 2 m/s 749 mmHg 76%
    03:00 +8°C° 0 mm 2 m/s 748 mmHg 75%
    04:00 +8°C° 0 mm 3 m/s 748 mmHg 74%
    05:00 +8°C° 0 mm 3 m/s 748 mmHg 73%
    06:00 +9°C° 0.1 mm 3 m/s 747 mmHg 75%
    07:00 +8°C° 0.1 mm 4 m/s 746 mmHg 76%
    08:00 +9°C° 0.1 mm 5 m/s 746 mmHg 78%
    09:00 +9°C° 0.6 mm 5 m/s 745 mmHg 78%
    10:00 +9°C° 0.6 mm 6 m/s 744 mmHg 78%
    11:00 +10°C° 0.6 mm 6 m/s 744 mmHg 79%
    12:00 +10°C° 0.3 mm 7 m/s 742 mmHg 77%
    13:00 +11°C° 0.3 mm 7 m/s 741 mmHg 75%
    14:00 +12°C° 0.3 mm 8 m/s 739 mmHg 73%
    15:00 +13°C° 0.9 mm 8 m/s 738 mmHg 75%
    16:00 +15°C° 0.9 mm 7 m/s 736 mmHg 77%
    17:00 +16°C° 0.9 mm 7 m/s 735 mmHg 79%
    18:00 +15°C° 3.3 mm 7 m/s 734 mmHg 82%
    19:00 +15°C° 3.3 mm 7 m/s 734 mmHg 85%
    20:00 +14°C° 3.3 mm 6 m/s 733 mmHg 88%
    21:00 +12°C° 0.2 mm 7 m/s 733 mmHg 86%
    22:00 +11°C° 0.2 mm 7 m/s 733 mmHg 85%
    23:00 +10°C° 0.2 mm 7 m/s 733 mmHg 83%

    25 Septembre, Mardi

    Heure Température Précipitation Vent Pression Humidité
    00:00 +10°C° 0.1 mm 7 m/s 733 mmHg 83%
    01:00 +10°C° 0.1 mm 8 m/s 733 mmHg 83%
    02:00 +9°C° 0.1 mm 8 m/s 732 mmHg 83%
    03:00 +9°C° 0.1 mm 8 m/s 732 mmHg 83%
    04:00 +9°C° 0.1 mm 7 m/s 732 mmHg 83%
    05:00 +9°C° 0.1 mm 7 m/s 732 mmHg 82%
    06:00 +9°C° 0.2 mm 7 m/s 732 mmHg 83%
    07:00 +7°C° 0.2 mm 8 m/s 733 mmHg 84%
    08:00 +7°C° 0.2 mm 8 m/s 733 mmHg 85%
    09:00 +7°C° 0.2 mm 8 m/s 734 mmHg 84%
    10:00 +7°C° 0.2 mm 8 m/s 736 mmHg 83%
    11:00 +7°C° 0.2 mm 8 m/s 737 mmHg 81%
    12:00 +7°C° 0.3 mm 8 m/s 738 mmHg 81%
    13:00 +7°C° 0.3 mm 8 m/s 739 mmHg 81%
    14:00 +7°C° 0.3 mm 8 m/s 740 mmHg 80%
    15:00 +7°C° 0.2 mm 8 m/s 741 mmHg 80%
    16:00 +7°C° 0.2 mm 8 m/s 742 mmHg 79%
    17:00 +6°C° 0.2 mm 7 m/s 743 mmHg 78%
    18:00 +6°C° 0 mm 7 m/s 744 mmHg 78%
    19:00 +7°C° 0 mm 6 m/s 744 mmHg 78%
    20:00 +6°C° 0 mm 5 m/s 745 mmHg 78%
    21:00 +6°C° 0 mm 5 m/s 746 mmHg 79%
    22:00 +5°C° 0 mm 5 m/s 746 mmHg 80%
    23:00 +5°C° 0 mm 5 m/s 747 mmHg 81%
    Voir plus